Simultaneous Nadir Overpasses (SNOs) Predictions

Prediction of SNOs between METOP-B and NOAA-19 Satellite Orbit:

Table of predicted SNOs for the next 14.0 days since TLE Epoch: 6/20/2020
Index Date (METOP-B) Time (METOP-B) Lat,Lon (METOP-B) SZA (METOP-B ) Date (NOAA-19) Time (NOAA-19) Lat,Lon (NOAA-19) SZA (NOAA-19 ) Distance(km) Time Diff (sec)
1 06/21/2020 18:05:15 -80.03, 111.19 122.67 06/21/2020 18:04:14 -80.04, 111.31 122.67 2.44 61
2 06/21/2020 18:55:55 80.03, -81.47 57.34 06/21/2020 18:55:13 80.05, -81.58 57.33 2.69 42
3 06/21/2020 19:46:36 -80.05, 86.02 122.64 06/21/2020 19:46:14 -80.02, 86.00 122.67 2.85 22
4 06/21/2020 20:37:17 80.02,-106.95 57.32 06/21/2020 20:37:13 80.04,-106.90 57.33 1.94 4
5 06/21/2020 21:27:58 -80.04, 60.55 122.66 06/21/2020 21:28:15 -80.03, 60.37 122.67 3.34 17
6 06/21/2020 22:18:38 80.04,-132.12 57.34 06/21/2020 22:19:13 80.02,-132.22 57.34 2.47 35
7 06/21/2020 23:09:20 -80.02, 35.08 122.68 06/21/2020 23:10:15 -80.02, 35.06 122.67 0.55 55
8 06/22/2020 00:00:00 80.02,-157.59 57.32 06/22/2020 00:01:13 80.01,-157.53 57.34 1.99 73
9 07/02/2020 18:27:52 80.06, -74.22 57.82 07/02/2020 18:26:37 80.06, -74.15 57.80 1.44 75
10 07/02/2020 19:18:34 -80.05, 93.01 122.20 07/02/2020 19:17:42 -80.07, 92.95 122.20 2.53 52
11 07/02/2020 20:09:14 80.04, -99.69 57.80 07/02/2020 20:08:38 80.07, -99.78 57.81 3.26 36
12 07/02/2020 20:59:56 -80.04, 67.54 122.21 07/02/2020 20:59:42 -80.06, 67.64 122.19 2.90 14
13 07/02/2020 21:50:36 80.03,-125.17 57.79 07/02/2020 21:50:38 80.06,-125.10 57.81 3.04 2
14 07/02/2020 22:41:17 -80.05, 42.37 122.18 07/02/2020 22:41:42 -80.04, 42.32 122.19 1.38 25
15 07/02/2020 23:31:57 80.05,-150.34 57.82 07/02/2020 23:32:38 80.04,-150.42 57.82 1.64 41
16 07/03/2020 00:22:39 -80.04, 16.89 122.20 07/03/2020 00:23:42 -80.03, 17.00 122.18 2.35 63




NCC Satellite Simultaneous Nadir Overpasses (SNOs) Prediction Service
